Tracking 31027 objects as of 19-Jul-2025
HD Live streaming from Space Station
objects crossing your sky now

STARLINK-2598

Track STARLINK-2598 now!
10-day predictions
STARLINK-2598 is classified as:


NORAD ID: 48385
Int'l Code: 2021-038AJ
Perigee: 553.5 km
Apogee: 555.3 km
Inclination: 53.1 °
Period: 95.6 minutes
Semi major axis: 6925 km
RCS: Unknown
Launch date: May 4, 2021
Source: United States (US)
Launch site: AIR FORCE EASTERN TEST RANGE (AFETR)
Your satellite tracking list
STARLINK-1749
Track 1 satellite(s)




NASA's NSSDC Master Catalog

Two Line Element Set (TLE):
1 48385U 21038AJ  25199.64181897 -.00000906  00000-0 -41927-4 0  9996
2 48385  53.0576 322.2992 0001290  80.7184 279.3951 15.06386870233115
Source of the keplerian elements: AFSPC